[[{"header":{"parameterUnit":"m.s-1","parameterCategory":1,"la1":30.2991,"la2":30.254,"lo1":-89.0895,"lo2":-89.0444,"dy":0.0017,"dx":0.0017,"nx":28,"ny":28,"refTime":"2024-08-04T09:00:00:Z","depth":0,"parameterNumber":2,"parameterNumberName":"U-component_of_WINDS"},"data":[0,0,0,0,0,0,0,0,0,0,0,0,0,0,0,0,0,0,0,0,0,0,0,0,0,0,0,0,0,0,0,0,0,0,0,0,0,0,0,0,0,0,0,0,0,0,0,0,0,0,0,0,0,0,0,0,0,0,-0.8659,-0.8658,0,-0.8596,-0.8595,-0.8594,-0.8509,-0.8507,-0.8506,-0.8504,-0.8446,-0.8445,-0.8445,0,0,0,0,0,0,0,0,0,0,0,0,0,-0.8712,-0.8711,-0.8659,-0.8658,-0.8657,-0.8596,-0.8595,-0.8594,-0.8509,-0.8507,-0.8505,-0.8504,-0.8446,-0.8445,-0.8445,0,0,0,0,0,0,0,0,0,0,0,0,0,-0.8673,-0.8711,-0.8659,-0.8607,-0.8602,-0.8596,-0.8595,-0.8594,-0.8509,-0.8507,-0.8505,-0.8503,-0.8446,-0.8445,-0.8445,-0.8486,0,0,-0.8444,-0.8444,0,0,0,0,0,0,0,0,-0.8675,-0.8671,-0.8616,-0.8611,-0.8605,-0.8558,-0.8592,-0.8558,-0.851,-0.8545,-0.8504,-0.8502,-0.8485,-0.8481,-0.8474,-0.8484,-0.8481,-0.8444,-0.8444,-0.8444,-0.8444,0,0,0,0,0,0,0,-0.8678,-0.8673,-0.8634,-0.8615,-0.8608,-0.8589,-0.8581,-0.8585,-0.8528,-0.8541,-0.8535,-0.8529,-0.8482,-0.8475,-0.8472,-0.848,-0.8444,-0.8444,-0.8444,-0.8443,-0.8523,-0.8526,0,0,0,0,0,0,-0.8688,-0.8676,-0.8636,-0.8632,-0.8635,-0.859,-0.8581,-0.8575,-0.8528,-0.8518,-0.853,-0.8525,-0.8477,-0.8473,-0.847,-0.8518,-0.8444,-0.8443,-0.8443,-0.8521,-0.8524,-0.8527,0,0,0,0,0,0,-0.8689,-0.8685,-0.8638,-0.8652,-0.8645,-0.8591,-0.8585,-0.8575,-0.8568,-0.8519,-0.8509,-0.8534,-0.8475,-0.8471,-0.8483,-0.8515,-0.8443,-0.8443,-0.8518,-0.8522,-0.8525,-0.8613,0,0,0,0,0,0,-0.8691,-0.8686,-0.87,-0.8653,-0.8644,-0.8651,-0.8587,-0.8575,-0.8567,-0.8559,-0.852,-0.8511,-0.8473,-0.8484,-0.8483,-0.8513,-0.8443,-0.8515,-0.852,-0.8524,-0.8607,-0.8619,-0.8629,0,0,0,0,0,-0.8693,-0.8727,-0.8701,-0.8696,-0.866,-0.8653,-0.8648,-0.8602,-0.857,-0.8585,-0.8553,-0.8512,-0.8511,-0.8486,-0.8484,-0.8514,-0.8513,-0.8519,-0.8524,-0.8602,-0.8616,-0.8629,0,0,0,0,0,0,-0.878,-0.872,-0.869,-0.871,-0.8687,-0.8639,-0.8656,-0.8618,-0.8606,-0.8599,-0.8543,-0.8535,-0.8556,-0.8536,-0.851,-0.8553,-0.8506,-0.8511,-0.8566,-0.858,-0.859,-0.8596,-0.8442,0,0,0,0,0,-0.8802,-0.8799,-0.8747,-0.877,-0.8759,-0.871,-0.8705,-0.8671,-0.8646,-0.8637,-0.8606,-0.8585,-0.858,-0.8578,-0.857,-0.8602,-0.8595,-0.8622,-0.8633,-0.8643,-0.8649,-0.8668,-0.868,-0.8544,-0.8544,-0.8544,0,0,-0.8846,-0.8813,-0.8815,-0.8786,-0.8765,-0.8766,-0.8702,-0.8705,-0.8707,-0.8637,-0.8648,-0.8625,-0.8598,-0.8622,-0.8631,-0.8606,-0.8684,-0.8649,-0.8657,-0.8658,-0.8674,-0.8687,-0.8699,-0.8547,-0.8547,-0.8546,0,0,-0.8928,-0.8901,-0.8918,-0.8898,-0.8866,-0.8832,-0.8837,-0.8794,-0.8776,-0.8785,-0.8734,-0.8735,-0.8726,-0.871,-0.8701,-0.8778,-0.8741,-0.8777,-0.8836,-0.8855,-0.8866,-0.8875,-0.8906,-0.8918,-0.8783,-0.8783,-0.8783,0,-0.8989,-0.8986,-0.8932,-0.8939,-0.893,-0.8865,-0.8884,-0.8867,-0.8835,-0.8831,-0.8803,-0.8792,-0.8769,-0.879,-0.8809,-0.8802,-0.8808,-0.8783,-0.8868,-0.8877,-0.8885,-0.8914,-0.8925,-0.8788,-0.8787,-0.8787,-0.8786,0,-0.9063,-0.9062,-0.908,-0.905,-0.9042,-0.9055,-0.9006,-0.9004,-0.8971,-0.8942,-0.8954,-0.8924,-0.891,-0.8912,-0.888,-0.8928,-0.8914,-0.8878,-0.883,-0.8904,-0.893,-0.8941,-0.8795,-0.8793,-0.8791,-0.879,0,0,-0.92,-0.914,-0.9148,-0.9134,-0.9094,-0.9093,-0.9104,-0.9089,-0.9091,-0.9071,-0.9081,-0.9075,-0.9042,-0.9032,-0.8997,-0.9013,-0.908,-0.8975,-0.8974,-0.8999,-0.9136,-0.9167,-0.918,-0.9054,-0.9056,-0.9057,-0.914,0,-0.9277,-0.9291,-0.9244,-0.9271,-0.9272,-0.9211,-0.922,-0.9199,-0.9171,-0.917,-0.914,-0.9138,-0.9092,-0.9086,-0.9099,-0.907,-0.9108,-0.9062,-0.9067,-0.9067,-0.9079,-0.9193,-0.9225,-0.9304,-0.9149,-0.9151,-0.9152,0,-0.937,-0.9354,-0.9381,-0.9341,-0.9339,-0.9349,-0.9333,-0.9331,-0.9305,-0.9285,-0.9273,-0.9233,-0.9244,-0.9195,-0.9211,-0.9181,-0.918,-0.9166,-0.9168,-0.9169,-0.9117,-0.9202,-0.9328,-0.9341,-0.9167,-0.9166,-0.9165,0,-0.9472,-0.9456,-0.9471,-0.9461,-0.9414,-0.9423,-0.9404,-0.9376,-0.9371,-0.9357,-0.9354,-0.9342,-0.9337,-0.933,-0.9288,-0.9256,-0.931,-0.9257,-0.9296,-0.9298,-0.9313,-0.9314,-0.9445,-0.9307,-0.9307,-0.9306,-0.9306,0,-0.9565,-0.9585,-0.9517,-0.9527,-0.9548,-0.9494,-0.9517,-0.9492,-0.9468,-0.9474,-0.942,-0.9427,-0.937,-0.9371,-0.9339,-0.9359,-0.9356,-0.9342,-0.9334,-0.9349,-0.9351,-0.935,-0.9345,-0.9309,-0.9309,-0.9308,-0.9308,0,-0.9683,-0.9638,-0.9651,-0.9605,-0.9594,-0.9612,-0.9574,-0.9583,-0.9551,-0.956,-0.9559,-0.9511,-0.951,-0.9467,-0.9457,-0.9435,-0.947,-0.945,-0.9479,-0.9474,-0.9517,-0.9515,-0.9655,-0.9672,-0.952,-0.9521,-0.9522,0,-0.9748,-0.9761,-0.9717,-0.9716,-0.97,-0.9699,-0.9693,-0.9641,-0.9638,-0.961,-0.9623,-0.9617,-0.961,-0.9612,-0.9578,-0.9571,-0.9553,-0.9602,-0.9551,-0.9567,-0.9558,-0.9559,-0.9562,-0.9614,-0.9616,-0.9617,-0.9619,0,-0.9868,-0.9845,-0.9838,-0.9824,-0.9818,-0.9805,-0.9789,-0.9792,-0.9734,-0.9734,-0.9732,-0.9726,-0.9716,-0.9712,-0.9699,-0.9682,-0.9643,-0.9634,-0.9644,-0.9661,-0.9679,-0.9674,-0.9512,-0.9632,-0.9631,-0.963,-0.9629,-0.9629,-0.9963,-0.9974,-0.9945,-0.994,-0.9921,-0.9908,-0.9914,-0.9883,-0.988,-0.9867,-0.9836,-0.984,-0.9816,-0.9794,-0.978,-0.9784,-0.9759,-0.9772,-0.9776,-0.9781,-0.9791,-0.9675,-0.9781,-0.978,-0.978,-0.9779,-0.9779,0,-1.0084,-1.0062,-1.0058,-1.0036,-1.0033,-0.9993,-0.9973,-0.9974,-0.9977,-0.9957,-0.9951,-0.995,-0.9946,-0.9912,-0.9904,-0.9914,-0.9896,-0.9915,-0.9915,-0.9913,-0.9811,-0.9805,-0.993,-0.993,-0.9929,-0.9929,-0.9929,-0.9929,-1.0147,-1.0163,-1.0137,-1.0146,-1.0124,-1.0126,-1.0118,-1.0106,-1.009,-1.0091,-1.0087,-1.0064,-1.0039,-1.003,-1.0026,-1.0016,-1.0018,-1.0043,-1.0028,-0.9934,-0.992,-0.9906,-0.99,-1.0043,-1.0043,-1.013,-1.013,-1.0131]},{"header":{"parameterUnit":"m.s-1","parameterCategory":1,"la1":30.2991,"la2":30.254,"lo1":-89.0895,"lo2":-89.0444,"dy":0.0017,"dx":0.0017,"nx":28,"ny":28,"refTime":"2024-08-04T09:00:00:Z","depth":0,"parameterNumber":3,"parameterNumberName":"V-component_of_WINDS"},"data":[0,0,0,0,0,0,0,0,0,0,0,0,0,0,0,0,0,0,0,0,0,0,0,0,0,0,0,0,0,0,0,0,0,0,0,0,0,0,0,0,0,0,0,0,0,0,0,0,0,0,0,0,0,0,0,0,0,0,1.5091,1.509,0,1.4987,1.4986,1.4985,1.4956,1.4956,1.4957,1.4958,1.4841,1.4838,1.4834,0,0,0,0,0,0,0,0,0,0,0,0,0,1.5257,1.5255,1.5091,1.509,1.5089,1.4987,1.4986,1.4984,1.4956,1.4957,1.4957,1.4958,1.4842,1.4838,1.4834,0,0,0,0,0,0,0,0,0,0,0,0,0,1.5172,1.5254,1.5092,1.5063,1.5059,1.4987,1.4986,1.4984,1.4956,1.4957,1.4957,1.4958,1.4844,1.4839,1.4833,1.478,0,0,1.4816,1.4814,0,0,0,0,0,0,0,0,1.5177,1.5166,1.5068,1.5064,1.506,1.4986,1.5002,1.4915,1.4955,1.4994,1.4958,1.4959,1.4888,1.4879,1.4857,1.4775,1.477,1.4816,1.4812,1.481,1.4808,0,0,0,0,0,0,0,1.5183,1.517,1.505,1.5067,1.5062,1.5052,1.5041,1.4985,1.4937,1.4991,1.4989,1.4977,1.4886,1.4862,1.4854,1.4768,1.4816,1.4811,1.4808,1.4805,1.4636,1.4635,0,0,0,0,0,0,1.5195,1.5176,1.5053,1.5047,1.5123,1.5048,1.5036,1.5008,1.4937,1.4928,1.4977,1.4976,1.4871,1.486,1.485,1.4782,1.481,1.4805,1.4802,1.4637,1.4635,1.4634,0,0,0,0,0,0,1.5199,1.5185,1.5057,1.511,1.5094,1.5044,1.5014,1.5006,1.4982,1.4927,1.4917,1.4962,1.4872,1.4857,1.4798,1.4777,1.4802,1.4797,1.4638,1.4636,1.4635,1.4646,0,0,0,0,0,0,1.5204,1.5186,1.5167,1.511,1.5091,1.501,1.5013,1.5003,1.4974,1.4973,1.491,1.4901,1.4871,1.4806,1.4793,1.477,1.4793,1.464,1.4637,1.4635,1.4647,1.4645,1.4643,0,0,0,0,0,1.521,1.5173,1.5167,1.5152,1.5067,1.5009,1.4997,1.4967,1.4973,1.4952,1.4916,1.4903,1.4783,1.4801,1.4785,1.476,1.4641,1.4638,1.4636,1.4648,1.4646,1.4643,0,0,0,0,0,0,1.5225,1.5165,1.5157,1.5101,1.5061,1.5004,1.4977,1.4965,1.4919,1.492,1.4881,1.4867,1.481,1.4779,1.48,1.4705,1.4711,1.4705,1.4726,1.4723,1.4721,1.4728,1.4788,0,0,0,0,0,1.5223,1.5183,1.5132,1.5087,1.5068,1.5026,1.5,1.498,1.4935,1.4917,1.4877,1.4831,1.4783,1.4752,1.4705,1.4644,1.4628,1.4619,1.4617,1.4616,1.461,1.4574,1.4568,1.4625,1.4625,1.4625,0,0,1.5215,1.5178,1.5155,1.5089,1.5056,1.5013,1.5012,1.4967,1.4934,1.4909,1.4851,1.482,1.4767,1.4706,1.4677,1.4679,1.4591,1.4612,1.4612,1.4606,1.457,1.4565,1.456,1.4624,1.4624,1.4624,0,0,1.518,1.515,1.5108,1.5076,1.5026,1.4999,1.4989,1.4935,1.4914,1.4857,1.4837,1.4796,1.4715,1.4677,1.4647,1.46,1.4585,1.4586,1.4573,1.4538,1.4534,1.453,1.451,1.4504,1.4581,1.4581,1.4581,0,1.5177,1.5115,1.5088,1.5044,1.5015,1.4995,1.4952,1.492,1.4856,1.4835,1.4839,1.4737,1.4699,1.4629,1.4618,1.4595,1.4581,1.4591,1.4537,1.4533,1.4528,1.4509,1.4503,1.4581,1.4581,1.4581,1.4581,0,1.5112,1.5069,1.5041,1.4984,1.4952,1.4908,1.4873,1.4843,1.4827,1.4799,1.4739,1.4694,1.4637,1.4619,1.4602,1.4546,1.4549,1.4546,1.4551,1.4524,1.4505,1.4498,1.4582,1.4581,1.4581,1.4581,0,0,1.508,1.5011,1.5001,1.4974,1.4919,1.4883,1.4839,1.4786,1.476,1.4718,1.4677,1.461,1.4607,1.4573,1.4551,1.4522,1.4485,1.4522,1.452,1.4514,1.4418,1.4419,1.4411,1.4476,1.4475,1.4474,1.4422,0,1.5036,1.4959,1.4934,1.4867,1.4826,1.4807,1.4768,1.4728,1.4701,1.466,1.4629,1.4581,1.4582,1.4562,1.4532,1.4496,1.4464,1.4499,1.4434,1.4432,1.4445,1.4402,1.4402,1.4355,1.4415,1.4413,1.4413,0,1.4974,1.4934,1.4864,1.4814,1.4796,1.4761,1.4711,1.4673,1.4627,1.4609,1.4573,1.4554,1.4504,1.4515,1.4443,1.4468,1.444,1.4419,1.4416,1.4406,1.4418,1.4387,1.4339,1.4331,1.4401,1.4402,1.4403,0,1.4955,1.4883,1.4832,1.481,1.4751,1.4727,1.47,1.4656,1.4626,1.4582,1.4561,1.4511,1.4482,1.4442,1.4409,1.4421,1.4339,1.4348,1.432,1.4321,1.4301,1.4302,1.4245,1.4289,1.4289,1.4289,1.4289,0,1.4907,1.4864,1.4823,1.479,1.4742,1.4713,1.4665,1.4637,1.4598,1.4558,1.4539,1.4501,1.4462,1.4419,1.4392,1.4336,1.4324,1.4305,1.4298,1.4305,1.4307,1.4284,1.4285,1.4287,1.4287,1.4288,1.4288,0,1.4875,1.4847,1.4789,1.4739,1.4726,1.4692,1.4647,1.4614,1.4588,1.4538,1.4525,1.4482,1.443,1.4394,1.4327,1.4309,1.4247,1.4242,1.4263,1.4259,1.4232,1.4234,1.4155,1.4142,1.4198,1.4198,1.4197,0,1.4845,1.4812,1.476,1.4734,1.4708,1.4666,1.4636,1.4607,1.4576,1.4522,1.4495,1.4443,1.4399,1.4317,1.4277,1.4225,1.4217,1.4193,1.4208,1.4216,1.4213,1.4214,1.4209,1.4189,1.4189,1.4188,1.4188,0,1.4793,1.4781,1.474,1.4694,1.466,1.4622,1.4583,1.4562,1.4526,1.4492,1.4441,1.4407,1.434,1.4287,1.4232,1.4202,1.4187,1.4185,1.4175,1.4179,1.4192,1.4182,1.4253,1.4185,1.4185,1.4186,1.4186,1.4186,1.4759,1.4728,1.4687,1.4642,1.4611,1.4576,1.4542,1.4513,1.4471,1.4416,1.4401,1.4347,1.4301,1.4226,1.4195,1.4151,1.4152,1.4139,1.4134,1.4131,1.4129,1.4203,1.4141,1.4141,1.4141,1.4141,1.4141,0,1.4703,1.4676,1.4636,1.4584,1.4548,1.4543,1.45,1.447,1.4423,1.4384,1.4342,1.4282,1.4231,1.419,1.4137,1.4108,1.41,1.4095,1.4095,1.4087,1.4132,1.4145,1.4102,1.4102,1.4103,1.4103,1.4103,1.4103,1.467,1.4617,1.46,1.4532,1.4505,1.4454,1.443,1.4396,1.4364,1.4299,1.4258,1.4233,1.4192,1.4136,1.4088,1.4077,1.4056,1.4052,1.4039,1.408,1.4085,1.4089,1.41,1.4049,1.4049,1.3997,1.3997,1.3997]}]]